Retour au catalogue

STARLINK-37473

ActifCommunicationsSSO
NORAD 68804·PAYLOAD·🇺🇸 United States

Lancé Apr 23, 2026 depuis Vandenberg Space Force Base

Loading…

Prochains Passages (prochaines 24 heures)

TLE

FraisSource: CelesTrak SupGP

Époque: Sep 15, 2026, 03:42 UTC

1 68804C 26089C   26258.15465278 -.00047238  00000+0 -14663-2 0  2587
2 68804  97.2846 103.9231 0001877  90.9035 331.7772 15.33464752    13

Suivez STARLINK-37473 en temps réel avec AllMySat

Download on the App Store